Theta_e
342 343 343 344 343 344 349 343 343 343 344 343 340 340 337 340 342 344 346 348 355 353 355 360 361 361 362 357 358 360 357 359 357 358 357 358 358 358 350 346 344 352 345 343 345 345 354 359 349 365 368 363 363 369 372 376 371 362 364 364 364 367 358
341 342 342 342 344 344 348 346 344 343 342 342 341 343 340 340 343 343 347 349 351 354 353 355 361 359 358 359 357 361 361 358 358 361 354 359 363 363 355 346 345 348 355 353 348 357 368 352 366 357 363 367 361 368 364 365 368 364 359 360 359 357 352
341 342 340 341 343 344 344 344 344 343 342 340 341 341 340 343 343 345 348 348 352 353 353 352 359 354 356 359 356 357 355 353 354 351 348 347 351 351 352 360 353 349 356 350 367 345 360 367 371 368 368 364 360 363 363 365 364 358 356 358 353 344 351
340 342 342 342 343 343 344 345 342 341 341 341 341 341 340 343 343 346 347 350 351 351 353 353 356 354 353 354 353 355 353 353 351 349 347 351 351 346 349 349 364 355 346 344 341 347 346 357 362 365 366 365 362 362 361 359 355 352 348 350 350 346 349
344 346 343 340 341 343 346 345 345 344 340 341 341 342 341 342 343 345 347 349 351 352 352 352 353 354 353 352 351 351 352 350 349 349 352 367 358 353 345 344 342 341 343 345 370 357 365 370 355 361 361 366 362 361 358 353 349 348 346 348 349 345 342
342 344 343 339 341 344 345 345 344 345 341 341 341 341 341 342 343 344 347 353 352 352 355 359 355 356 354 351 350 348 348 349 354 362 368 366 363 348 347 346 344 346 342 344 354 360 360 362 360 359 358 356 355 353 351 347 344 344 345 347 347 343 342
340 342 342 339 341 343 343 343 344 344 343 341 342 342 342 343 343 343 346 349 351 350 349 357 355 357 358 357 353 352 344 343 349 351 371 365 361 350 344 344 343 344 347 362 362 363 361 360 361 360 359 356 354 349 347 349 346 345 346 347 344 345 346
339 340 342 341 343 342 340 341 343 343 343 341 341 341 341 342 343 343 346 347 349 352 354 355 355 358 362 365 356 349 347 349 352 361 369 365 351 349 347 344 352 359 366 363 365 362 359 361 359 358 357 352 348 346 344 349 350 344 344 343 343 341 340
340 340 341 344 343 345 345 346 346 344 344 341 340 341 341 342 342 343 346 347 352 357 356 358 358 363 364 365 363 364 351 368 361 366 360 353 350 347 345 347 347 361 364 362 360 361 360 358 357 356 353 350 347 346 346 346 344 343 343 343 343 341 338
345 342 342 344 340 343 345 346 346 346 346 340 341 344 343 344 347 343 343 346 349 358 359 360 364 363 363 362 352 352 367 369 367 364 358 354 350 355 348 351 360 366 364 361 358 358 359 358 356 355 355 347 347 346 347 345 344 343 343 344 342 339 336
341 344 342 344 344 343 345 344 343 345 344 343 344 344 345 350 349 346 349 346 351 361 360 361 365 365 364 363 364 362 366 366 367 367 360 350 356 359 364 366 367 369 366 363 358 358 358 356 354 352 352 345 345 345 346 346 346 346 345 342 341 337 334
343 343 344 347 343 346 345 346 347 347 347 345 344 344 350 356 352 350 350 351 356 360 364 365 364 369 368 366 365 365 359 368 370 368 371 367 367 360 370 370 368 366 366 365 363 361 358 355 347 346 346 345 344 343 343 345 346 345 344 341 339 336 336
337 338 342 340 345 348 347 346 346 345 349 346 341 342 347 348 350 350 359 359 356 362 368 370 371 373 372 368 363 365 366 368 371 374 374 374 372 372 372 370 368 366 364 364 362 359 354 351 347 346 345 345 343 340 341 340 341 344 343 341 340 339 338
339 337 337 340 340 343 342 343 346 344 347 348 345 346 347 344 352 363 368 359 359 362 366 368 373 375 374 372 369 368 371 371 373 377 374 379 378 374 371 369 367 365 364 363 359 354 353 350 347 347 347 344 343 341 340 338 338 340 343 341 341 340 338
338 335 336 336 336 339 346 345 344 345 347 349 349 353 350 352 356 364 368 368 366 365 368 370 375 374 375 372 372 369 374 373 373 375 375 380 376 373 370 367 366 364 363 360 356 350 349 351 346 345 344 344 342 341 337 335 334 336 338 340 341 340 338
335 338 337 335 336 339 344 351 351 358 348 355 353 357 359 359 353 361 365 367 369 371 372 373 374 375 374 371 371 371 376 375 374 374 378 376 373 371 368 365 363 361 360 357 354 352 352 350 348 347 344 341 339 338 334 333 334 337 338 339 338 340 339
334 337 338 337 337 339 343 348 355 361 352 352 354 360 360 358 358 364 365 367 371 373 375 375 375 376 374 370 373 372 376 375 373 375 377 374 371 368 366 363 361 359 356 352 352 352 351 349 347 345 342 340 336 334 332 333 334 336 334 335 336 339 340
332 334 337 338 339 339 341 344 350 359 359 355 354 359 358 360 360 361 364 369 372 375 377 376 375 375 374 372 373 372 374 373 375 376 374 372 369 366 364 361 359 355 353 351 350 350 349 348 346 344 341 336 335 333 331 332 334 333 333 334 334 337 339
333 335 335 338 339 340 341 343 348 356 360 358 356 358 358 364 361 360 363 367 374 376 375 375 375 375 373 372 373 371 372 375 376 374 371 369 367 365 362 359 356 353 351 349 349 349 348 347 343 342 340 337 334 331 332 331 334 331 331 332 332 334 338
335 338 339 338 339 342 344 346 350 355 359 360 359 362 362 366 365 365 368 370 376 374 374 374 375 374 372 370 371 370 373 376 375 371 369 367 365 362 360 357 354 352 352 350 349 347 345 344 343 342 341 337 334 333 331 331 333 330 331 330 329 332 338
342 341 342 342 341 341 345 346 349 352 355 358 356 357 362 364 367 369 370 372 374 374 373 373 373 372 371 370 371 371 374 376 372 369 367 365 363 360 358 356 354 352 350 349 347 346 345 343 342 340 339 337 334 331 329 330 328 329 328 327 327 330 343
340 343 344 347 345 344 344 345 347 349 350 355 357 355 356 361 365 370 370 374 375 374 371 371 371 370 371 370 372 373 375 373 370 368 365 363 361 359 356 354 352 350 350 349 348 348 347 344 342 340 339 337 335 330 330 327 326 327 327 326 327 331 340
339 346 349 351 351 349 348 347 347 349 353 353 354 356 355 358 363 369 371 373 372 371 370 369 369 370 370 370 372 374 374 372 369 366 363 362 359 357 354 352 350 350 350 347 346 345 344 342 341 341 338 337 336 334 334 330 327 323 323 323 325 338 341
338 343 346 349 356 356 354 352 350 350 350 351 353 355 359 362 367 370 370 368 368 369 368 367 368 370 370 371 375 374 373 372 369 364 362 360 358 356 354 352 351 349 349 346 344 343 343 343 341 341 340 338 336 335 333 333 330 322 322 321 323 335 343
336 340 346 350 351 352 353 356 354 350 353 351 348 354 362 366 367 367 366 365 367 369 367 366 368 369 369 373 376 374 372 371 368 365 361 360 358 355 352 350 349 349 349 346 345 344 343 341 340 340 341 339 337 334 335 335 332 320 319 320 323 332 346
347 339 343 348 351 351 353 357 360 354 354 353 354 356 360 363 362 364 366 365 368 367 366 367 369 371 374 377 375 373 372 370 366 364 362 360 357 355 353 351 350 349 347 345 343 341 342 341 340 340 338 340 340 336 337 335 334 329 318 319 321 326 346
354 355 348 348 350 360 354 353 352 350 350 351 356 355 357 357 357 364 367 367 368 366 367 369 372 373 378 377 374 372 370 368 366 363 362 360 356 354 352 351 349 347 346 344 344 343 342 341 339 338 338 340 340 339 337 334 333 330 317 317 319 323 340
351 353 354 357 357 354 355 352 354 355 352 355 360 359 360 359 362 368 368 368 366 366 369 372 373 378 378 374 371 370 368 366 365 363 360 358 355 352 350 350 349 347 345 344 343 341 339 338 338 338 339 341 341 339 338 337 335 333 322 318 317 318 326
347 348 357 361 363 365 352 351 352 351 352 351 356 358 359 361 370 370 368 366 367 365 368 371 375 377 375 372 370 367 365 364 362 360 358 355 353 350 348 348 347 345 345 342 340 337 336 336 336 336 337 338 339 339 338 339 337 333 330 322 317 317 320
345 347 354 360 364 364 363 364 364 366 370 362 363 367 363 365 368 368 366 366 368 364 369 373 376 375 370 368 367 364 363 362 359 357 355 353 351 349 347 346 344 343 341 340 338 336 335 334 333 334 334 334 336 336 337 338 337 333 332 329 320 318 318
346 348 356 356 359 363 364 363 362 362 362 364 372 371 370 370 367 367 364 368 371 371 373 374 373 371 367 364 363 361 360 359 358 355 353 352 350 347 344 343 342 340 341 340 339 337 333 331 332 332 334 334 333 334 336 335 336 336 332 330 330 322 321
356 357 356 358 358 359 362 363 363 361 360 361 362 367 376 372 370 366 368 373 377 378 376 372 369 365 364 362 360 358 358 355 353 353 352 350 348 345 343 341 340 339 338 337 336 336 332 330 330 331 332 333 333 332 332 334 335 335 335 333 330 330 326
355 357 356 355 358 360 358 358 357 357 357 357 361 363 367 372 372 373 375 377 376 375 372 368 365 361 360 358 357 356 353 351 349 348 348 347 345 343 342 341 340 339 338 340 338 335 332 331 331 330 331 332 332 332 332 332 334 335 337 338 337 334 330
355 355 356 358 358 359 357 356 354 355 355 355 359 362 361 360 361 364 367 369 370 370 368 363 361 358 357 357 355 351 350 347 343 344 346 345 343 340 338 338 339 339 337 336 337 334 332 331 331 330 330 330 331 332 331 331 331 332 335 336 334 333 334
355 355 356 356 356 357 356 355 354 353 352 353 357 360 362 360 359 360 363 364 364 366 363 360 358 358 356 354 351 349 346 345 344 344 342 340 340 341 341 339 338 335 334 333 335 340 334 332 332 332 332 332 332 331 330 329 328 331 327 326 317 338 338
354 354 354 356 356 355 354 354 354 353 352 354 356 357 359 360 362 361 358 359 360 361 359 358 356 354 351 350 347 346 344 344 342 339 336 332 327 323 317 314 319 329 329 325 320 313 312 325 336 335 333 335 338 333 333 331 331 311 304 303 303 303 305
352 353 352 355 354 352 351 351 351 350 352 353 355 354 355 357 359 360 358 358 359 358 358 357 353 351 348 345 344 343 343 340 335 333 333 331 329 327 323 319 312 301 308 316 315 307 302 302 308 321 329 334 328 319 314 316 307 302 301 301 300 299 299
353 353 354 355 353 352 351 349 349 349 349 351 352 352 353 352 355 358 356 357 357 358 357 356 352 349 346 345 344 341 341 337 334 333 331 331 330 330 328 321 315 311 302 301 305 305 302 302 304 308 313 316 319 325 317 309 303 302 301 301 300 299 297
Wind_Speed
13 12 12 9 10 8 6 9 10 10 11 14 14 16 16 14 13 13 15 15 14 13 12 10 10 10 11 10 10 8 9 8 8 7 6 5 5 3 5 6 8 3 5 9 8 7 4 4 0 1 1 6 3 6 3 3 3 5 5 6 6 5 7
12 12 12 13 11 11 13 13 13 13 15 16 14 12 14 15 15 15 15 15 16 14 13 13 10 10 11 10 10 9 7 8 8 6 8 5 5 4 5 7 6 8 5 3 2 2 2 1 2 1 5 2 5 4 5 3 3 3 5 5 5 6 6
10 10 13 14 13 13 15 15 15 16 16 16 15 13 14 11 15 15 16 16 15 14 13 14 11 13 12 10 10 10 10 10 9 11 10 9 10 7 4 4 3 2 1 3 0 3 1 1 8 5 2 2 4 4 3 2 3 4 5 5 5 6 5
11 10 12 14 16 16 13 12 15 14 15 16 16 15 16 14 14 13 16 15 17 16 14 13 12 13 13 12 12 11 12 10 10 9 10 8 9 8 6 4 2 3 4 3 6 3 2 3 8 6 5 2 3 2 3 4 5 7 7 5 4 5 5
10 9 11 13 14 14 13 13 12 12 17 17 16 15 16 15 15 14 15 16 15 16 15 14 12 11 11 12 10 10 11 12 10 9 6 3 4 5 8 10 9 7 5 3 1 3 3 2 3 5 6 2 3 5 5 6 5 6 6 6 4 5 5
13 9 11 15 15 12 10 10 13 13 17 18 18 16 15 16 14 16 13 13 13 15 12 10 11 9 9 12 11 11 11 10 6 5 5 5 4 4 4 3 2 1 1 4 2 7 6 6 6 5 6 6 5 6 7 6 6 7 6 4 4 5 5
15 14 13 14 13 11 10 12 13 13 15 16 16 14 14 14 15 15 14 14 14 16 14 12 12 9 7 7 8 9 12 13 9 7 2 5 3 5 7 6 7 7 4 8 9 7 8 6 6 5 5 6 6 7 6 5 5 5 4 4 4 4 4
16 14 13 12 14 14 14 13 14 13 13 13 14 15 15 14 14 16 13 14 13 11 11 10 11 8 6 5 7 8 9 8 9 6 5 4 6 7 6 6 2 2 11 9 7 7 7 7 6 6 6 7 7 6 7 4 5 6 5 5 5 5 4
14 13 12 8 4 9 13 12 11 12 12 13 16 15 15 13 13 13 14 14 10 9 11 10 9 7 6 5 6 5 8 4 8 9 9 8 7 9 8 4 5 4 11 9 8 7 5 7 7 6 7 7 6 6 6 6 6 6 5 4 4 5 7
8 10 10 10 11 10 11 11 10 9 11 14 11 10 11 10 9 10 14 12 11 9 12 10 8 8 6 5 8 7 4 7 7 9 8 7 6 6 7 3 3 10 9 8 7 8 8 7 7 6 5 6 7 7 6 6 6 6 5 5 6 7 7
8 10 9 9 10 9 10 13 14 12 11 9 9 10 10 7 9 8 9 13 11 8 11 9 8 7 7 6 5 4 3 8 6 5 6 9 4 2 8 10 7 6 7 7 9 8 7 6 6 5 4 7 7 7 6 5 5 5 5 5 6 7 7
5 6 4 3 10 8 11 12 12 10 9 7 8 7 6 6 9 8 10 12 12 9 9 9 9 8 8 7 6 4 4 6 5 5 4 2 4 5 8 7 8 8 8 8 8 6 6 5 5 7 8 7 8 7 6 5 5 5 4 6 5 6 5
10 6 3 2 4 3 7 8 11 11 8 7 11 9 9 10 7 7 7 11 13 10 8 9 8 8 8 8 7 5 4 7 5 4 4 2 5 8 7 7 8 8 7 7 6 6 6 6 8 8 8 8 7 7 6 6 5 4 4 5 5 5 4
5 8 3 4 6 8 12 10 10 11 9 9 9 10 6 9 8 5 7 12 12 12 9 9 9 9 8 7 6 6 5 7 5 4 5 3 8 8 7 7 7 7 7 7 7 7 7 6 8 8 7 7 6 6 5 5 5 5 4 4 4 4 5
8 9 10 7 12 11 8 9 10 11 12 10 11 9 13 9 7 5 8 7 10 12 11 10 9 9 8 7 6 7 5 7 5 5 4 7 8 8 8 8 7 7 7 7 7 7 7 7 9 9 8 7 6 6 5 5 6 5 5 5 5 4 5
12 9 13 17 17 13 11 7 6 7 10 6 9 8 7 7 9 7 9 9 8 8 9 9 9 9 8 8 7 7 6 7 6 6 6 8 8 8 8 8 8 7 7 7 7 7 7 8 8 7 7 6 6 6 5 5 5 7 10 8 6 6 3
12 14 14 15 13 13 11 8 6 6 9 10 8 7 7 8 9 9 10 9 9 9 8 9 9 8 9 8 7 7 7 7 7 7 8 7 8 8 8 8 8 7 8 8 8 7 7 7 7 6 6 7 6 6 6 5 5 10 9 9 10 7 6
13 13 13 14 15 13 11 8 7 4 6 8 9 9 8 8 8 9 9 9 9 8 8 8 9 8 8 8 8 8 8 8 8 9 8 8 8 8 8 8 8 8 8 8 9 7 7 7 7 7 6 7 7 6 6 5 6 7 7 8 9 9 6
13 14 14 13 14 15 16 13 9 6 5 6 8 9 9 9 8 8 7 8 8 8 8 8 8 8 8 8 8 8 8 9 10 9 8 8 8 7 8 8 9 9 9 9 8 8 7 7 7 7 7 7 7 7 6 5 6 5 7 7 8 9 9
15 14 13 16 16 14 13 9 7 8 7 7 6 7 8 9 9 8 7 8 8 9 9 9 8 9 9 8 8 9 9 9 10 9 8 8 8 8 8 9 9 8 7 8 8 8 8 8 8 7 6 6 7 6 5 4 5 5 7 7 8 8 7
10 11 13 14 16 18 15 16 14 11 10 10 11 8 8 8 9 8 8 9 10 10 10 9 9 8 8 9 9 9 9 10 10 10 9 9 9 9 9 9 9 9 8 8 8 7 7 8 7 7 7 6 6 6 5 3 5 5 6 6 8 8 6
14 12 12 12 15 16 16 16 16 16 14 11 11 11 10 10 10 10 10 10 11 10 10 10 9 9 9 9 9 10 10 10 10 10 10 10 10 10 10 9 9 9 8 8 7 7 7 7 7 7 6 6 6 5 4 3 5 4 4 5 5 9 3
12 12 11 11 13 15 16 17 17 17 13 12 13 12 12 10 11 10 10 10 10 11 10 10 9 9 10 10 10 11 11 11 11 10 10 10 11 11 10 10 9 9 7 8 8 8 7 7 7 6 6 6 6 5 4 4 4 5 6 7 8 5 4
12 11 12 11 9 10 11 13 15 15 15 16 15 15 12 12 11 11 11 11 10 10 10 10 10 10 10 11 11 11 11 10 11 11 11 11 11 11 10 9 8 8 8 9 9 8 8 7 7 6 6 6 6 4 4 4 4 5 5 5 6 5 2
0 8 8 9 10 10 10 10 13 16 16 16 18 15 12 13 13 12 11 10 10 10 10 10 10 10 11 11 11 11 10 10 10 11 12 11 11 10 11 10 9 9 8 8 8 8 7 7 7 6 5 5 5 8 6 4 4 6 7 8 6 6 2
9 7 6 4 8 10 10 9 9 13 15 15 14 14 13 13 12 12 12 11 11 11 11 11 11 11 10 10 11 10 10 10 11 11 11 11 11 10 9 9 9 9 9 8 8 8 7 7 6 7 6 4 4 4 4 4 4 5 6 7 8 9 3
10 12 8 5 5 1 6 9 11 13 15 13 11 13 15 13 12 13 12 12 12 12 11 10 10 11 10 10 11 10 10 9 10 11 11 11 11 10 9 8 9 9 9 8 7 7 7 6 6 6 5 4 3 4 3 4 4 4 6 9 11 11 6
13 10 4 4 3 2 1 4 6 5 6 8 12 13 12 11 10 11 12 12 12 12 11 11 11 11 10 10 11 10 10 10 10 10 10 10 10 10 9 8 9 9 9 8 9 9 8 8 6 4 3 3 3 3 3 4 6 4 7 8 10 11 12
8 8 7 5 6 7 3 4 3 2 6 7 7 7 7 10 8 9 10 11 12 12 12 11 11 11 11 10 11 10 11 10 11 10 9 10 10 10 10 9 9 9 9 10 10 10 10 8 8 6 3 3 3 3 3 3 4 6 5 8 9 10 10
6 5 5 4 6 10 11 9 9 8 9 3 5 5 8 8 8 8 8 9 10 10 11 12 12 13 14 11 11 11 10 11 11 10 10 11 10 10 11 10 9 9 9 10 11 10 10 8 9 8 6 4 3 3 3 3 3 5 6 5 7 8 8
5 7 2 2 5 8 9 9 10 9 11 11 6 3 5 7 11 10 11 9 8 9 12 12 13 12 11 12 11 12 12 11 10 11 11 11 11 10 11 11 11 10 8 8 9 9 9 9 8 9 7 5 5 4 3 3 3 2 3 5 5 5 6
7 5 2 2 5 8 8 8 9 9 10 10 10 8 4 7 9 9 7 6 5 10 12 12 12 12 12 12 12 13 12 12 12 12 13 12 11 11 11 12 12 12 12 9 7 7 9 8 9 9 8 6 5 5 4 3 3 3 2 3 4 3 2
4 4 4 4 4 6 8 8 9 9 9 8 9 9 8 8 6 5 6 7 9 9 11 12 13 12 13 13 13 12 12 13 11 11 11 11 10 10 10 10 10 9 8 8 5 4 5 6 7 8 8 7 6 5 5 5 4 4 4 4 3 3 3
5 6 5 5 6 7 7 9 9 8 8 7 7 7 8 9 8 6 7 7 7 8 10 11 12 12 13 14 12 12 13 13 15 14 10 10 8 9 10 10 10 10 10 11 7 5 4 4 6 7 8 8 7 7 6 5 5 4 5 5 4 4 3
5 5 6 6 6 7 7 7 8 9 8 5 5 5 5 7 6 6 7 7 7 5 7 9 11 11 12 12 11 12 12 13 12 11 12 13 13 8 7 10 12 12 10 8 5 5 6 6 5 6 8 7 7 8 7 6 7 6 4 4 3 3 4
5 7 6 6 7 9 8 8 7 8 7 5 3 3 4 4 4 4 6 7 8 5 7 8 8 9 10 8 8 9 11 9 8 8 8 8 8 9 9 12 11 10 11 8 8 8 1 3 4 5 8 6 5 3 6 7 6 9 12 10 9 9 9
5 6 7 8 9 8 8 8 7 5 6 5 3 4 3 2 3 4 5 9 7 7 7 7 8 8 8 8 7 11 9 8 8 8 6 6 8 9 11 9 11 15 13 11 8 9 10 8 6 8 10 10 5 5 8 15 15 13 13 11 9 8 6
5 4 5 9 11 8 7 8 6 5 5 5 4 3 2 3 2 3 6 8 7 6 7 7 8 8 7 7 7 8 8 8 8 8 8 7 7 6 7 10 10 8 12 10 10 13 12 11 12 14 15 17 16 10 4 4 8 13 13 11 9 7 6
Wind_Direction
178 177 175 166 176 194 208 206 192 207 233 231 194 183 187 176 164 163 160 166 163 172 181 176 173 172 182 188 187 191 191 180 182 190 199 203 238 215 192 213 192 235 230 194 194 217 148 102 83 349 300 53 35 55 35 44 30 345 24 15 8 331 4
174 171 172 178 181 191 196 207 200 205 215 223 194 184 191 179 169 171 158 165 169 172 181 178 178 171 187 184 193 180 199 182 183 175 194 184 203 252 253 215 227 181 209 334 5 255 59 152 225 110 61 17 63 57 41 14 44 6 35 16 359 360 346
156 165 176 181 187 190 196 197 201 207 204 199 196 185 193 172 178 167 155 167 170 171 184 178 182 181 185 189 194 182 192 192 189 182 194 185 185 209 218 285 312 345 67 229 217 18 241 94 80 87 78 43 45 65 58 5 68 35 52 33 4 349 31
160 177 176 186 185 192 199 200 192 194 213 197 194 186 192 176 181 166 163 168 172 172 187 174 187 184 186 189 192 186 190 195 192 190 205 189 169 184 187 198 226 246 214 229 235 216 56 58 117 101 92 68 109 99 82 35 39 50 49 44 351 349 44
171 174 165 189 193 190 200 206 205 197 201 199 196 191 192 178 179 175 169 170 171 176 184 177 184 189 186 187 195 185 189 193 190 194 198 218 162 191 188 189 189 202 213 206 38 75 59 69 29 87 115 123 97 82 58 40 35 61 49 35 6 13 27
172 182 186 190 191 182 187 209 207 220 200 194 185 193 191 180 180 178 172 159 167 176 181 171 179 196 189 187 199 183 185 187 196 198 175 154 175 213 241 247 245 106 357 216 191 87 83 65 66 46 37 74 83 68 57 45 38 49 50 42 25 26 29
171 182 190 191 187 172 184 203 213 225 218 190 185 189 193 179 186 178 175 170 168 178 178 173 177 191 204 177 211 183 185 185 177 199 165 120 169 216 222 209 214 193 195 75 80 88 83 86 79 74 76 64 57 70 66 63 52 57 54 45 31 25 39
173 176 190 194 183 174 187 201 212 219 229 192 187 182 198 182 194 182 173 169 174 176 166 174 173 188 200 193 208 208 185 180 160 160 128 158 177 219 231 224 197 260 86 96 79 88 92 88 89 85 77 73 65 62 62 62 69 57 54 39 33 26 38
166 169 169 164 241 161 175 194 210 215 233 202 191 182 198 188 195 185 161 166 172 169 161 173 167 180 196 205 210 224 177 180 150 139 143 180 190 204 221 219 252 106 102 105 105 95 101 98 93 89 82 78 69 59 65 49 55 58 48 46 33 32 37
162 153 153 164 204 201 177 197 211 219 237 209 195 179 197 185 199 185 170 168 173 163 159 163 162 169 187 206 211 215 139 97 122 131 151 177 197 214 226 262 99 95 106 109 110 100 86 89 95 94 97 94 82 73 69 61 55 54 47 43 43 47 46
188 151 172 178 191 193 179 194 210 219 234 205 191 179 203 182 180 198 161 171 163 156 157 162 159 163 170 190 217 222 153 115 122 140 167 180 179 217 83 81 80 85 94 98 106 109 106 105 115 114 99 90 86 76 66 62 56 49 50 45 52 54 49
78 89 76 183 195 195 181 193 207 217 233 198 173 187 211 184 176 195 162 163 150 156 151 159 156 155 166 183 208 196 191 128 143 160 187 194 152 128 98 87 90 87 80 91 100 105 115 111 93 84 85 82 83 80 68 55 58 55 56 62 61 63 51
148 129 115 210 273 225 206 199 218 226 244 197 176 196 201 187 172 210 162 151 150 153 149 151 151 157 170 182 197 190 187 142 159 158 159 213 101 99 102 101 95 99 98 98 99 97 91 88 86 80 80 73 69 70 65 62 57 53 59 64 68 68 45
136 122 102 301 278 228 209 211 220 225 224 195 193 170 193 217 170 172 145 149 152 153 152 157 155 163 171 176 183 175 163 146 154 154 150 136 106 111 109 107 104 100 102 98 99 97 96 99 103 100 92 89 90 85 77 63 56 36 49 78 57 53 58
160 168 154 230 260 265 239 218 227 226 204 193 193 176 185 185 161 145 133 140 153 153 156 158 158 164 169 172 170 166 155 143 157 140 150 116 119 116 118 114 110 109 104 108 108 112 109 101 97 95 96 93 90 86 75 70 59 44 35 21 20 40 67
172 180 171 194 226 235 235 225 217 230 170 193 188 180 166 154 161 143 134 139 147 149 153 156 161 164 167 170 163 162 152 145 145 146 128 125 123 125 122 120 118 115 112 107 97 90 91 95 101 103 104 100 88 80 74 69 66 57 47 33 20 340 24
193 186 194 199 210 219 224 224 223 192 178 182 184 164 149 146 152 137 142 147 153 157 156 159 160 166 168 166 159 159 151 146 147 145 131 129 128 127 126 121 118 116 108 103 106 106 105 110 111 111 106 98 90 81 75 68 55 43 29 27 8 9 328
199 210 201 204 210 215 219 217 223 193 178 175 167 152 152 154 157 152 155 153 157 157 157 160 163 166 167 162 157 157 155 150 149 146 140 139 135 130 125 120 117 118 116 116 116 117 119 114 111 109 104 93 91 88 86 84 55 37 29 13 5 1 335
200 206 208 209 210 210 211 208 204 186 168 176 170 158 159 152 159 168 164 162 157 156 161 162 165 164 162 163 157 159 157 154 150 148 145 145 139 132 127 124 124 124 125 125 124 121 121 122 118 110 110 112 108 103 102 98 49 34 27 13 1 350 347
201 200 198 199 208 214 213 207 196 190 182 176 179 160 165 159 164 171 170 166 161 163 164 163 166 164 162 161 160 160 161 155 152 150 147 143 139 139 132 131 130 129 124 122 125 127 130 125 117 114 107 100 96 97 102 89 37 24 19 10 357 342 333
206 204 197 191 198 205 201 199 196 192 185 184 186 180 166 171 166 168 170 170 166 165 165 166 163 164 162 161 159 161 161 154 152 151 145 144 141 144 142 134 132 129 128 131 132 132 126 124 121 112 113 115 114 112 110 85 40 32 15 3 349 340 320
198 206 203 191 190 198 201 198 195 193 195 184 182 188 187 179 174 171 175 168 163 164 166 165 164 165 161 162 162 165 160 156 154 150 147 146 147 152 143 136 135 134 133 129 126 117 116 115 123 127 118 108 106 109 94 85 53 37 17 353 331 332 88
196 196 193 187 188 194 200 198 194 196 187 187 190 190 192 188 184 180 170 167 164 164 164 163 166 166 164 166 167 167 161 161 156 152 149 150 155 152 141 139 136 133 133 127 125 127 129 131 124 123 123 123 120 112 109 87 43 31 27 11 4 346 109
194 193 195 188 186 194 194 201 201 191 190 191 196 194 187 187 182 176 174 171 167 164 164 167 168 165 165 170 171 163 161 160 155 150 152 157 157 147 139 135 133 134 136 134 133 133 133 128 126 123 125 122 118 121 115 102 72 56 36 10 9 335 179
306 156 181 178 191 197 197 200 200 197 192 193 196 195 190 182 174 174 174 169 167 165 165 170 166 167 170 171 164 161 158 156 153 153 156 156 148 142 139 140 138 135 133 131 129 127 131 131 127 126 118 113 114 126 122 118 96 51 28 21 6 351 213
357 138 132 150 191 194 196 191 193 204 204 202 198 189 189 183 177 175 167 170 163 169 171 169 169 166 170 162 159 158 153 153 152 154 151 146 137 137 137 137 135 136 133 130 130 133 127 126 127 121 113 112 123 107 109 100 77 53 37 25 22 9 58
18 26 48 28 51 150 186 186 197 206 207 208 202 193 191 187 185 173 167 164 166 172 169 166 163 165 164 158 154 151 151 147 151 147 144 139 136 133 134 136 135 132 131 127 121 114 110 105 100 100 114 128 133 126 105 108 91 66 44 39 33 26 26
21 6 31 71 83 97 95 190 196 220 206 213 188 192 180 181 175 167 162 164 171 169 164 162 161 159 152 152 151 145 142 140 138 137 133 129 129 132 132 130 129 128 125 119 117 117 106 106 106 98 104 118 109 99 84 83 94 75 45 46 44 42 41
35 344 341 30 36 24 134 130 144 173 222 209 201 178 178 167 151 156 161 167 167 167 165 157 155 147 145 146 142 139 139 137 136 136 133 130 131 132 133 133 130 125 123 123 122 119 125 127 124 123 127 121 90 101 106 82 57 65 58 44 47 46 47
50 331 285 41 35 48 59 72 57 35 3 150 156 152 168 161 144 153 168 178 169 169 153 151 146 148 150 143 138 136 135 138 138 132 128 131 132 133 133 132 124 123 129 134 137 143 142 140 132 133 139 148 143 129 117 105 86 64 70 64 51 48 48
122 234 247 80 70 71 71 67 59 45 42 25 18 103 124 140 150 156 176 180 176 157 149 147 147 145 139 140 137 134 137 140 133 128 132 136 135 134 133 127 130 127 132 141 145 142 141 139 144 129 146 152 157 149 123 116 133 113 82 90 71 51 50
154 172 133 102 95 88 86 84 73 63 45 38 18 2 80 121 133 149 183 169 163 144 142 138 138 138 140 140 141 142 136 126 125 131 140 141 144 144 142 141 142 146 152 151 146 151 143 148 145 139 140 159 152 144 145 148 118 141 146 137 109 88 70
138 116 90 72 66 92 98 90 90 75 61 55 33 18 25 62 69 82 80 105 129 135 132 134 139 142 143 145 141 135 131 131 136 140 140 137 137 136 136 138 140 136 120 96 102 122 128 139 150 141 143 144 151 144 155 161 152 143 170 151 160 144 154
126 107 93 93 73 67 84 98 92 89 87 66 48 50 64 74 73 70 76 88 113 122 129 135 142 144 147 144 139 140 140 138 140 140 138 135 128 135 141 147 144 125 120 130 146 156 150 186 182 154 144 150 149 159 161 169 164 175 165 168 167 181 172
112 102 100 88 87 81 77 79 91 97 91 81 63 73 84 86 86 96 109 120 116 112 126 135 145 147 141 141 140 144 141 144 152 147 142 144 147 133 138 150 137 129 123 95 104 157 171 219 186 153 143 152 157 157 177 175 177 181 113 100 68 139 215
122 113 106 107 100 90 78 75 89 101 103 105 105 102 119 113 137 129 143 131 127 137 136 146 138 133 135 130 120 123 138 135 130 134 132 119 111 106 67 33 69 117 129 124 115 97 16 217 197 160 157 142 107 123 177 194 150 133 116 114 100 85 87
138 126 125 113 103 97 98 94 84 91 99 106 107 99 115 166 157 189 170 118 139 150 158 150 137 138 130 131 137 144 135 122 121 130 120 110 115 113 118 116 48 44 68 96 99 104 102 94 103 119 122 124 126 67 52 120 133 135 124 118 112 113 113
124 130 129 125 122 111 110 112 110 116 114 114 117 111 102 152 151 193 150 133 144 153 159 151 143 145 139 132 127 123 121 117 121 125 118 113 110 102 118 114 104 77 43 46 95 92 91 95 97 104 113 121 122 121 69 86 140 130 123 123 118 109 93